Location: Unspecified
(0.0000°N, 0.0000°E)
Time: 13:59:07
(UTC+00:00)

Vanguard 2 - All Passes

Search period start: 21 February 2019 00:00
Search period end: 03 March 2019 00:00
Orbit: 553 x 2939 km, 32.9° (Epoch: 20 February)

Date Brightness Start Highest point End Pass type
(mag) Time Alt. Az. Time Alt. Az. Time Alt. Az.
21 Feb - 03:14:10 10° N 03:19:51 18° NE 03:27:18 10° ENE visible
21 Feb - 05:19:36 10° NW 05:30:10 65° NE 05:46:34 10° ESE visible
21 Feb - 07:29:13 10° WNW 07:42:34 55° SSW 08:00:00 10° SE daylight
21 Feb - 09:44:51 10° WSW 09:57:44 25° SSW 10:10:50 10° SSE daylight
21 Feb - 12:07:59 10° SSW 12:15:12 14° S 12:21:41 10° SSE daylight
21 Feb - 14:24:52 10° SSW 14:31:39 15° S 14:37:06 10° SE daylight
21 Feb - 16:35:31 10° SW 16:44:22 35° SSE 16:50:01 10° E daylight
21 Feb - 18:47:03 10° WSW 18:53:36 45° NW 18:58:01 10° NE visible
22 Feb - 03:30:54 10° NNW 03:37:55 26° NE 03:48:01 10° E visible
22 Feb - 05:37:24 10° NW 05:48:15 84° NE 06:05:11 10° ESE visible
22 Feb - 07:48:07 10° W 08:01:16 43° SSW 08:17:50 10° SE daylight
22 Feb - 10:05:35 10° WSW 10:17:14 21° SSW 10:28:44 10° SSE daylight
22 Feb - 12:28:07 10° SSW 12:35:08 14° S 12:41:20 10° SSE daylight
22 Feb - 14:42:17 10° SSW 14:50:51 20° SSE 14:57:13 10° ESE daylight
22 Feb - 16:53:16 10° SW 17:02:48 52° SSE 17:08:32 10° ENE daylight
22 Feb - 19:06:04 10° W 19:11:23 26° NW 19:15:16 10° NNE visible
23 Feb - 03:48:01 10° NNW 03:55:50 37° NE 04:07:56 10° ESE visible
23 Feb - 05:55:25 10° WNW 06:06:27 77° SW 06:23:31 10° SE daylight
23 Feb - 08:07:24 10° W 08:20:10 34° SSW 08:35:38 10° SSE daylight
23 Feb - 10:26:38 10° SW 10:36:59 18° SSW 10:46:59 10° SSE daylight
23 Feb - 12:47:07 10° SSW 12:54:58 15° S 13:01:40 10° SE daylight
23 Feb - 14:59:47 10° SSW 15:09:52 26° SSE 15:16:46 10° ESE daylight
23 Feb - 17:11:18 10° SW 17:21:00 80° SE 17:26:42 10° ENE daylight
23 Feb - 19:25:57 10° WNW 19:29:09 15° NW 19:31:51 10° N visible
24 Feb - 04:05:25 10° NW 04:13:43 51° NE 04:27:15 10° ESE visible
24 Feb - 06:13:44 10° WNW 06:24:51 60° SSW 06:41:36 10° SE daylight
24 Feb - 08:27:10 10° WSW 08:39:20 28° SSW 08:53:26 10° SSE daylight
24 Feb - 10:47:36 10° SW 10:56:56 16° S 11:05:46 10° SSE daylight
24 Feb - 13:05:22 10° SSW 13:14:38 17° S 13:22:07 10° SE daylight
24 Feb - 15:17:25 10° SW 15:28:40 35° SSE 15:35:51 10° E daylight
24 Feb - 17:29:38 10° WSW 17:38:58 67° NW 17:44:32 10° NE daylight
25 Feb - 02:18:12 10° N 02:22:24 16° NE 02:27:46 10° ENE visible
25 Feb - 04:23:02 10° NW 04:31:38 70° NE 04:46:07 10° ESE visible
25 Feb - 06:32:20 10° W 06:43:27 47° SSW 06:59:31 10° SE daylight
25 Feb - 08:47:25 10° WSW 08:58:45 23° SSW 09:11:23 10° SSE daylight
25 Feb - 11:07:58 10° SSW 11:17:00 15° S 11:25:20 10° SSE daylight
25 Feb - 13:23:16 10° SSW 13:34:03 22° SSE 13:42:16 10° ESE daylight
25 Feb - 15:35:11 10° SW 15:47:15 49° SSE 15:54:30 10° ENE daylight
25 Feb - 17:48:24 10° WSW 17:56:47 42° NW 18:02:04 10° NNE daylight
26 Feb - 02:34:43 10° NNW 02:40:18 24° NE 02:48:21 10° E visible
26 Feb - 04:40:53 10° NW 04:49:41 87° SW 05:04:36 10° SE visible
26 Feb - 06:51:19 10° W 07:02:16 37° SSW 07:17:21 10° SE daylight
26 Feb - 09:08:01 10° SW 09:18:27 19° SSW 09:29:37 10° SSE daylight
26 Feb - 11:27:26 10° SSW 11:37:00 16° S 11:45:34 10° SE daylight
26 Feb - 13:41:00 10° SSW 13:53:15 27° SSE 14:01:59 10° ESE daylight
26 Feb - 15:53:10 10° SW 16:05:37 69° SSE 16:12:49 10° ENE daylight
26 Feb - 18:07:41 10° W 18:14:31 26° NW 18:19:16 10° NNE daylight
27 Feb - 02:51:48 10° NNW 02:58:06 36° NE 03:08:03 10° ESE visible
27 Feb - 04:58:59 10° WNW 05:07:56 66° SSW 05:22:49 10° SE visible
27 Feb - 07:10:44 10° WSW 07:21:19 29° SSW 07:35:09 10° SSE daylight
27 Feb - 09:28:44 10° SW 09:38:22 17° S 09:48:21 10° SSE daylight
27 Feb - 11:46:08 10° SSW 11:56:51 19° S 12:06:05 10° SE daylight
27 Feb - 13:58:45 10° SW 14:12:12 35° SSE 14:21:14 10° E daylight
27 Feb - 16:11:25 10° SW 16:23:45 85° NW 16:30:50 10° NE daylight
27 Feb - 18:27:47 10° WNW 18:32:18 16° NW 18:35:52 10° N visible
28 Feb - 03:09:11 10° NW 03:15:53 54° NE 03:27:10 10° ESE visible
28 Feb - 05:17:23 10° WNW 05:26:24 50° SSW 05:40:48 10° SE visible
28 Feb - 07:30:36 10° WSW 07:40:37 23° SSW 07:53:02 10° SSE daylight
28 Feb - 09:49:08 10° SSW 09:58:27 16° S 10:07:49 10° SSE daylight
28 Feb - 12:04:18 10° SSW 12:16:28 22° SSE 12:26:26 10° ESE daylight
28 Feb - 14:16:33 10° SW 14:30:57 47° SSE 14:40:04 10° E daylight
28 Feb - 16:30:00 10° WSW 16:41:42 60° NW 16:48:34 10° NE daylight
01 Mar - 01:22:23 10° NNE 01:25:18 14° NE 01:28:49 10° ENE visible
01 Mar - 03:26:52 10° NW 03:33:47 78° NE 03:45:50 10° ESE visible
01 Mar - 05:36:09 10° W 05:45:05 38° SSW 05:58:37 10° SE visible
01 Mar - 07:50:52 10° SW 08:00:10 19° SSW 08:11:07 10° SSE daylight
01 Mar - 10:08:46 10° SSW 10:18:32 17° S 10:28:04 10° SE daylight
01 Mar - 12:22:13 10° SSW 12:35:49 27° SSE 12:46:25 10° ESE daylight
01 Mar - 14:34:30 10° SW 14:49:27 62° SSE 14:58:34 10° ENE daylight
01 Mar - 16:48:58 10° WSW 16:59:30 41° NW 17:06:02 10° NNE daylight
02 Mar - 01:38:42 10° N 01:43:07 23° NE 01:49:18 10° E visible
02 Mar - 03:44:48 10° WNW 03:51:51 75° SW 04:04:09 10° SE visible
02 Mar - 05:55:17 10° WSW 06:03:59 29° SSW 06:16:22 10° SSE daylight
02 Mar - 08:11:22 10° SW 08:19:57 17° S 08:29:39 10° SSE daylight
02 Mar - 10:27:40 10° SSW 10:38:30 18° S 10:48:46 10° SE daylight
02 Mar - 12:40:02 10° SW 12:54:55 35° SSE 13:05:56 10° E daylight
02 Mar - 14:52:38 10° SW 15:07:45 82° SE 15:16:44 10° ENE daylight
02 Mar - 17:08:30 10° W 17:17:18 27° NW 17:23:12 10° NNE daylight
